WB5MTX Weather Reports


time (UTC)temp
C
wind
direction
speed
KPH
gust
KPH
rain 1hr
cm
rain 24hr
cm
rain mn
cm
humidity
%
barometer
mb
20260506223100 16 0 0.0 0.0 0.05 0.15 0.15 79 1013.2
20260506221553 16 0 0.0 0.0 0.05 0.15 0.15 81 1013.6
20260506220053 16 0 0.0 0.0 0.05 0.15 0.15 84 1013.0
20260506214551 17 0 0.0 4.8 0.00 0.10 0.10 73 1013.6
20260506213055 17 0 0.0 6.4 0.00 0.10 0.10 67 1013.2
20260506211601 17 0 0.0 12.9 0.00 0.10 0.10 68 1013.5
20260506210057 17 0 0.0 9.7 0.00 0.10 0.10 70 1013.5
20260506204613 17 316 1.6 9.7 0.00 0.10 0.10 67 1013.7
20260506203100 17 0 0.0 12.9 0.00 0.10 0.10 68 1013.5
20260506201600 17 318 1.6 12.9 0.00 0.10 0.10 67 1014.0
20260506200057 16 0 0.0 12.9 0.00 0.10 0.10 69 1014.2
20260506194602 16 0 0.0 9.7 0.00 0.10 0.10 69 1014.3
20260506193057 15 0 0.0 4.8 0.00 0.10 0.10 72 1014.5
20260506191554 15 324 0.0 8.0 0.00 0.10 0.10 74 1014.9
20260506190059 14 315 0.0 12.9 0.00 0.10 0.10 73 1014.8
20260506184557 13 0 0.0 6.4 0.00 0.10 0.10 77 1015.1
20260506183056 13 0 0.0 9.7 0.00 0.10 0.10 76 1015.1
20260506181604 13 336 1.6 14.5 0.00 0.10 0.10 76 1014.6
20260506180057 13 338 8.0 22.5 0.00 0.10 0.10 77 1013.6
20260506174601 13 0 0.0 12.9 0.00 0.10 0.10 78 1014.0
20260506173118 12 0 0.0 4.8 0.00 0.10 0.10 82 1014.2
20260506171555 12 0 0.0 12.9 0.00 0.10 0.10 83 1014.6
20260506170055 12 0 0.0 3.2 0.00 0.10 0.10 85 1014.5
20260506164557 12 0 0.0 4.8 0.00 0.10 0.10 86 1014.2
20260506163102 11 0 0.0 8.0 0.00 0.10 0.10 86 1014.6
20260506161609 11 319 0.0 9.7 0.00 0.10 0.10 87 1014.3
20260506160107 11 0 0.0 4.8 0.00 0.10 0.10 88 1014.5
20260506154602 12 253 0.0 17.7 0.08 0.10 0.10 89 1013.9
20260506153100 12 333 0.0 20.9 0.10 0.10 0.10 91 1013.6
20260506151558 11 342 0.0 6.4 0.10 0.10 0.10 91 1014.3
20260506150101 10 0 0.0 8.0 0.08 0.08 0.08 89 1015.5
20260506144612 11 0 0.0 8.0 0.03 0.03 0.03 86 1015.5
20260506143100 11 0 1.6 17.7 0.00 0.00 0.00 84 1015.4
20260506141558 11 0 4.8 17.7 0.00 0.00 0.00 83 1014.0
20260506140113 11 0 6.4 17.7 0.00 0.00 0.00 83 1014.0
20260506134554 11 0 3.2 19.3 0.00 0.00 0.00 81 1014.8
20260506133133 11 0 3.2 14.5 0.00 0.00 0.00 80 1013.8
20260506131558 11 329 1.6 16.1 0.00 0.00 0.00 79 1013.5
20260506130136 11 0 0.0 8.0 0.00 0.00 0.00 79 1013.5
20260506124558 12 0 1.6 16.1 0.00 0.00 0.00 78 1013.0
20260506123101 12 319 1.6 8.0 0.00 0.00 0.00 76 1012.8
20260506121600 12 0 1.6 16.1 0.00 0.00 0.00 75 1012.8
20260506120104 12 341 3.2 12.9 0.00 0.00 0.00 75 1012.4
20260506114554 13 323 3.2 14.5 0.00 0.00 0.00 75 1012.4
20260506113056 13 0 0.0 9.7 0.00 0.00 0.00 75 1012.2
20260506111554 13 0 1.6 14.5 0.00 0.00 0.00 76 1011.7
20260506110053 13 360 1.6 12.9 0.00 0.00 0.00 76 1011.5
20260506104603 13 360 0.0 16.1 0.00 0.00 0.00 76 1011.5
20260506103055 13 0 0.0 14.5 0.00 0.00 0.00 75 1011.2
20260506101552 13 327 0.0 16.1 0.00 0.00 0.00 76 1010.7
20260506100106 13 0 1.6 9.7 0.00 0.00 0.00 75 1010.5
20260506094601 13 0 0.0 12.9 0.00 0.00 0.00 76 1010.4
20260506093054 13 0 3.2 16.1 0.00 0.00 0.00 76 1010.3
20260506091552 14 0 0.0 14.5 0.00 0.00 0.00 76 1010.3
20260506090054 14 0 1.6 11.3 0.00 0.00 0.00 76 1010.3
20260506084554 14 0 0.0 14.5 0.00 0.00 0.00 77 1010.0
20260506083055 14 0 0.0 12.9 0.00 0.00 0.00 77 1009.8
20260506081605 14 311 1.6 14.5 0.00 0.00 0.00 77 1009.7
20260506073057 15 0 0.0 6.4 0.00 0.00 0.00 78 1009.4
20260506071553 15 0 0.0 0.0 0.00 0.00 0.00 77 1009.4
20260506061553 16 352 0.0 8.0 0.00 0.00 0.00 77 1009.4
20260506060107 16 0 1.6 8.0 0.00 0.00 0.00 76 1009.3
20260506044554 17 0 0.0 6.4 0.00 0.00 0.00 74 1009.4
20260506043056 18 0 0.0 14.5 0.00 0.00 0.00 74 1009.0
20260506041558 18 331 3.2 17.7 0.00 0.00 0.00 74 1009.2
20260506040055 18 345 4.8 22.5 0.00 0.00 0.00 72 1009.3
20260506034612 19 324 4.8 16.1 0.00 0.00 0.00 72 1009.0
20260506033055 19 0 1.6 16.1 0.00 0.00 0.00 71 1008.6
20260506031555 20 0 0.0 9.7 0.00 0.00 0.00 69 1008.2
20260506030054 20 0 0.0 9.7 0.00 0.00 0.00 69 1007.7
20260506024556 20 0 0.0 14.5 0.00 0.00 0.00 69 1007.6
20260506023101 20 0 0.0 8.0 0.00 0.00 0.00 68 1007.3
20260506021553 21 343 1.6 9.7 0.00 0.00 0.00 69 1007.3
20260506020054 21 0 3.2 17.7 0.00 0.00 0.00 68 1006.9
20260506014554 22 0 1.6 12.9 0.00 0.00 0.00 67 1006.5
20260506013106 22 0 0.0 12.9 0.00 0.00 0.00 67 1006.0
20260506011558 22 0 1.6 11.3 0.00 0.00 0.00 65 1005.7
20260506010108 23 0 0.0 9.7 0.00 0.00 0.00 65 1005.6
20260506004552 23 0 1.6 17.7 0.00 0.00 0.00 64 1005.4
20260506003056 24 309 0.0 9.7 0.00 0.00 0.00 61 1005.1
20260506001601 25 0 0.0 4.8 0.00 0.00 0.00 60 1005.2
20260506000056 25 0 0.0 17.7 0.00 0.00 0.00 59 1005.3
20260505234552 26 0 0.0 17.7 0.00 0.00 0.00 58 1004.8
20260505233104 26 319 4.8 16.1 0.00 0.00 0.00 58 1004.6
20260505231553 27 330 3.2 20.9 0.00 0.00 0.00 58 1004.4
20260505230057 29 319 1.6 17.7 0.00 0.00 0.00 52 1004.2
20260505224559 30 0 3.2 16.1 0.00 0.00 0.00 48 1004.2